IRNSS-1J (NVS-01)

Last updated on Tue Oct 15 2024 00:02:42 GMT+0000 (Coordinated Universal Time)

1 56759U 23076A 24288.50493683 -.00000345 00000+0 00000+0 0 9993 2 56759 3.6972 263.5014 0006823 343.0386 88.3337 1.00269093 4992
UTC large
Height (km)
Speed (km/s)
/
Latitude / Longitude
Inclination (degrees)
Orbital Period (minutes)
Azimuth
Elevation
Range (km)
Doppler Factor

Next 0 passes for location: London (51.5072 / 0.1276)

Sorry there are no passes over London.